www.pogodaiklimat.ru

ПОГОДА в Ильичёвске

  • Прогноз погоды в Ильичёвске
  • Монитор погоды в Ильичёвске
  • Климат города

АРХИВ ПОГОДЫ в Ильичёвске

Время (UTC), дата Ветер
(напр.,м/с)
 
Видим.   Явления Облачность Т
(С)
Тd
(С)
f
(%)
Тe
(С)
Тes
(С)
Комфортность P
(гПа)
Po
(гПа)
Тmin
(С)
Tmax
(С)
R
(мм)
S
(см)
18 20.07 ЮЗ 1 н/о 3 балла +21.8 +13.7 60 +25 +25 комфорт 1012.8 1006.7
21 20.07 СЗ 1 н/о 3 балла +20.0 +10.7 55 +23 +23 комфорт 1014.1 1008.0
00 21.07 СЗ 2 10 км 3/0
[Ac lent]
+18.1 +10.9 63 +19 +19 1012.2 1012.0
03 21.07 СЗ 2 н/о 6 баллов +16.1 +11.5 74 +16 +16 1014.2 1008.0
06 21.07 СЗ 2 н/о ясно +23.2 +12.8 52 +26 +34 жарко 1014.1 1008.0
09 21.07 С 2 н/о 3 балла +26.6 +9.4 34 +27 +39 жарко 1014.0 1008.0
12 21.07 СЗ 3 30 км 5/5 600 м
[Cu med, cong]
+27.7 +9.0 31 +28 +34 жарко 1012.6 1013.0
15 21.07 Ю 4 н/о 7 баллов +24.5 +15.1 56 +27 +28 жарко 1014.0 1008.0
18 21.07 штиль 0 н/о 1 балл +21.9 +15.3 66 +25 +25 комфорт 1014.1 1008.0
21 21.07 ЮЗ 1 н/о ясно +20.2 +13.9 67 +24 +24 комфорт 1014.1 1008.0
00 22.07 ЮЗ 2 10 км ясно +20.1 +15.9 77 +23 +23 комфорт 1012.5 1013.0
03 22.07 СЗ 1 н/о 5 баллов +17.8 +13.7 77 +19 +19 1014.2 1008.0
06 22.07 СЗ 3 н/о 6 баллов +25.3 +9.1 36 +26 +28 жарко 1014.0 1008.0
09 22.07 СЗ 4 н/о 3 балла +28.7 +10.4 32 +29 +37 жарко 1013.9 1008.0
12 22.07 З 3 30 км 5/1 600 м
[Cu hum Ac trans Ci fib]
+30.9 +10.0 27 +30 +39 жарко 1012.3 1012.0
15 22.07 СЗ 3 н/о 3 балла +30.9 +9.7 27 +30 +33 жарко 1012.6 1006.7
18 22.07 С 2 н/о 4 балла +25.7 +15.1 52 +29 +29 душно 1015.3 1009.3
21 22.07 С 1 н/о ясно +21.7 +15.5 68 +25 +25 комфорт 1015.4 1009.3
00 23.07 СЗ 1 10 км 3/0
[Ac lent]
+19.3 +15.4 78 +22 +22 комфорт 1015.2 1015.0
03 23.07 СЗ 1 н/о ясно +17.1 +14.9 87 +18 +18 1016.9 1010.7
06 23.07 В 1 н/о ясно +25.4 +15.1 53 +28 +37 жарко 1016.7 1010.7
09 23.07 Ю 4 н/о 4 балла +24.9 +16.6 60 +28 +35 жарко 1016.7 1010.7
12 23.07 З 1 н/о 6 баллов +27.5 +17.9 56 +32 +39 очень
душно
1015.3 1009.3
15 23.07 СЗ 3 н/о 6 баллов +29.7 +19.1 53 +30 +32 жарко 1013.9 1008.0
18 23.07 З 1 н/о 4 балла +24.8 +18.5 68 +29 +29 душно 1014.0 1008.0
21 23.07 СЗ 2 н/о ясно +22.6 +14.7 61 +26 +26 жарко 1014.1 1008.0
00 24.07 С 2 10 км ясно +20.0 +15.1 73 +23 +23 комфорт 1013.5 1014.0
03 24.07 СЗ 3 н/о ясно +18.5 +14.0 75 +19 +19 1014.2 1008.0
06 24.07 СЗ 3 н/о ясно +23.9 +15.9 61 +27 +33 жарко 1014.0 1008.0
09 24.07 С 3 н/о ясно +27.3 +22.7 76 +36 +50 очень
душно
1015.3 1009.3
12 24.07 ЮВ 1 28 км ясно +32.7 +17.4 40 +36 +53 опасность
солнечного
удара
1013.1 1013.0
15 24.07 Ю 3 н/о 5 баллов +27.9 +17.7 54 +32 +34 душно 1014.0 1008.0
18 24.07 С 3 н/о ясно +26.9 +14.6 47 +29 +29 жарко 1015.3 1009.3
21 24.07 СЗ 2 н/о ясно +23.8 +14.8 57 +27 +27 жарко 1015.4 1009.3
00 25.07 СЗ 3 10 км ясно +21.4 +15.1 67 +25 +25 комфорт 1014.7 1015.0
03 25.07 СЗ 3 н/о ясно +19.7 +15.1 75 +22 +22 комфорт 1016.8 1010.7
06 25.07 В 1 н/о ясно +27.2 +17.1 54 +31 +40 душно 1016.7 1010.7
09 25.07 В 3 н/о 4 балла +31.5 +20.4 52 +38 +47 очень
душно
1015.2 1009.3
12 25.07 Ю 2 24 км 1/1 600 м
[Cu med, cong]
+28.6 +20.6 62 +35 +48 очень
душно
1014.5 1015.0
15 25.07 Ю 3 н/о 3 балла +28.2 +17.4 52 +32 +34 душно 1015.3 1009.3
18 25.07 З 1 н/о 4 балла +24.9 +15.8 57 +28 +28 жарко 1015.3 1009.3
21 25.07 СЗ 2 н/о ясно +23.3 +16.8 67 +28 +28 душно 1016.8 1010.7
00 26.07 СЗ 2 10 км ясно +21.9 +15.4 67 +26 +26 душно 1014.7 1015.0
03 26.07 СЗ 2 н/о ясно +20.7 +16.5 77 +25 +25 комфорт 1016.8 1010.7
06 26.07 СВ 3 н/о дымка ясно +26.5 +17.3 57 +31 1016.7 1010.7
09 26.07 В 2 н/о дымка 2 балла +29.9 +19.0 52 +35 1016.6 1010.7
12 26.07 Ю 1 н/о дымка 2 балла +32.3 +20.8 51 +40 1016.6 1010.7
15 26.07 С 1 н/о ясно +30.1 +18.8 51 +35 +39 очень
душно
1015.2 1009.3
18 26.07 штиль 0 н/о 3 балла +25.5 +16.9 59 +29 +29 душно 1015.3 1009.3
21 26.07 СЗ 2 н/о ясно +24.6 +16.8 62 +28 +28 душно 1016.7 1010.7
00 27.07 С 1 10 км ясно +23.4 +17.7 70 +29 +29 душно 1014.6 1015.0
03 27.07 СВ 1 н/о дымка 3 балла +23.1 +17.5 71 +28 1016.8 1010.7
06 27.07 СВ 3 н/о дымка ясно +26.7 +18.3 60 +31 1016.7 1010.7
09 27.07 В 2 н/о дымка ясно +31.2 +18.2 46 +36 1016.6 1010.7
12 27.07 Ю 1 11 км 3/0
[Ci fib]
+33.7 +16.8 37 +37 +52 опасность
солнечного
удара
1015.2 1015.0
15 27.07 Ю 1 н/о ясно +30.8 +16.4 42 +34 +38 очень
душно
1015.2 1009.3

 

Местоположение метеостанции Ильичевск (Одесская область, Украина): широта 46.40 долгота 30.70 высота над уровнем моря 52 м.

В архиве по умолчанию представлена погода в Ильичёвске за последнюю неделю. Архивные данные за месяц целиком и за предыдущие месяцы, начиная с января 2011 года, Вы можете получить, выбрав интересующий диапазон дат из раскрывающегося списка и нажав кнопку "Ввод!".

Внимание! Время в таблицах - всемирное. Для получения местного времени необходимо прибавить поправку, которая в Ильичёвске равна 2 ч.

Ветер - указаны скорость ветра в м/с - средняя за 10 мин, порывы в срок и между сроками (в фигурных скобках) и направление, откуда дует ветер: С - северный, СВ - северо-восточный, В - восточный, ЮВ - юго-восточный, Ю - южный, ЮЗ - юго-западный, З - западный, СЗ - северо-западный.
Видимость - горизонтальная дальность видимости в метрах или километрах. При видимости от 1 до 10 км при отсутствии осадков обычно наблюдается дымка, при ухудшении видимости до 1 км и менее - туман. В сухую погоду видимость может ухудшаться дымом, пылью или мглою.
Явления - указаны атмосферные явления, наблюдавшиеся в срок или в последний час перед сроком; фигурными скобками обозначены явления, наблюдавшиеся между сроками (за 1-3 часа до срока); квадратными скобками обозначены град или гололедные отложения с указанием их диаметра в мм.
Облачность - указаны через наклонную черту общая и нижняя облачность в баллах и высота нижней границы облаков в метрах; квадратными скобками обозначены формы облаков: Ci - перистые, Cs - перисто-слоистые, Cc - перисто-кучевые, Ac - высококучевые, As - высокослоистые, Sc - слоисто-кучевые, Ns - слоисто-дождевые, Cu - кучевые, Cb - кучево-дождевые. Подробнее классификацию облаков см. в Атласе облаков (PDF).
T - Температура воздуха - температура, измеренная на высоте 2 м над землей.
Td - Температура точки росы - температура, при понижении до которой содержащийся в воздухе водяной пар достигнет насыщения.
f - Относительная влажность воздуха - влажноcть воздуха, измеренная на высоте 2 м над землей.
Te - Эффективная температура - температура, которую ощущает одетый по сезону человек в тени. Характеристика душности погоды. При расчете учитывается влияние влажности воздуха и скорости ветра на теплоощущения человека.
Tes - Эффективная температура на солнце - температура, которую ощущает человек, с поправкой на солнечный нагрев. Характеристика знойности погоды. Зависит от высоты солнца над горизонтом, облачности и скорости ветра. Ночью, в пасмурную погоду, а также при ветре 12 м/с и более поправка равна нулю.
P - Атмосферное давление - приведенное к уровню моря атмосферное давление.
Po - Атмосферное давление - измеренное на уровне метеостанции атмосферное давление.
Tmin - Минимальная температура - минимум температуры воздуха на высоте 2 м над землей.
Tmax - Максимальная температура - максимум температуры воздуха на высоте 2 м над землей.
R - Количество осадков - Количество выпавших осадков, мм. При наведении курсора мыши на число - период времени, за который выпало указанное количество осадков.
S - Снежный покров - Высота снежного покрова, см. При наведении курсора мыши на число - состояние снежного покрова и степень покрытия местности в баллах.